Theta_e
303 305 308 307 305 303 303 304 305 305 303 302 304 305 304 305 305 304 303 302 301 300 295 293 292 290 289 288 288 287 287 287 286 287 286 287 287 288 288 288 287 288 289 290
304 306 303 302 302 303 303 304 306 305 301 302 304 304 304 304 303 301 300 299 298 296 293 291 290 289 289 288 287 286 286 286 285 285 284 285 285 286 286 286 287 287 288 290
304 304 301 302 303 304 304 305 305 304 303 301 301 307 306 302 300 299 298 297 296 296 294 291 289 289 287 287 287 286 285 284 284 283 284 284 285 286 287 287 287 287 287 288
303 301 302 303 303 303 307 301 302 302 304 308 302 314 311 307 302 300 300 299 297 294 292 291 290 288 288 287 285 284 284 283 283 283 283 284 284 285 285 285 286 286 286 287
306 302 303 304 303 301 305 300 301 301 304 303 304 308 310 302 302 301 299 298 296 293 291 290 289 287 286 285 284 283 282 282 282 282 282 283 283 284 284 284 285 285 286 286
301 299 300 301 299 299 299 301 302 300 303 310 303 305 311 306 305 301 299 296 293 292 290 289 288 286 286 284 283 283 282 282 282 281 281 281 282 282 283 283 283 284 285 285
306 303 300 300 301 301 302 305 315 315 312 315 300 303 308 304 299 299 298 297 294 291 291 291 289 287 285 285 283 282 281 281 281 280 280 280 281 281 281 282 282 283 283 283
309 312 302 300 302 306 304 306 313 316 314 307 298 306 307 300 296 294 292 291 292 292 291 289 287 285 284 283 282 281 281 281 280 280 280 280 280 281 281 281 282 282 282 282
309 308 298 299 299 301 303 306 301 306 297 304 309 305 301 299 299 296 297 294 295 292 290 288 285 284 282 281 280 280 280 280 279 279 279 280 280 280 280 280 280 281 281 281
303 308 301 298 298 298 302 299 305 304 310 311 310 306 310 304 304 300 299 296 294 292 290 287 284 283 281 279 279 279 278 278 278 278 279 279 280 279 279 279 279 280 280 281
301 303 303 300 301 303 300 303 301 301 301 311 311 310 308 304 299 297 296 294 293 290 288 286 284 281 278 277 277 277 277 278 278 277 278 279 279 279 279 279 279 280 280 280
300 302 304 303 296 297 300 303 303 307 305 300 299 307 295 293 290 289 293 293 292 289 287 284 282 279 277 276 277 277 277 278 278 278 277 278 278 278 279 279 279 280 281 281
301 303 306 303 299 297 300 299 299 296 297 302 306 309 291 289 297 299 294 295 292 288 286 284 280 278 277 276 277 277 278 278 278 278 278 278 278 278 278 279 279 280 281 281
300 301 303 309 306 303 302 300 297 300 302 301 301 303 302 299 300 299 296 292 289 288 285 283 280 279 277 276 277 278 278 278 278 278 278 278 278 278 278 279 279 279 280 281
299 300 295 297 298 299 301 301 299 298 300 302 300 294 299 299 299 293 288 289 290 290 289 286 283 281 278 277 277 278 278 279 278 278 279 278 279 279 279 279 280 280 280 281
298 300 295 296 295 296 299 299 300 299 300 295 296 297 295 292 290 294 294 291 289 289 288 286 282 280 278 277 278 279 279 279 279 279 279 279 279 280 280 280 280 280 280 281
298 299 298 301 293 296 301 297 297 295 290 296 299 299 292 294 295 295 292 289 289 289 287 286 285 281 280 279 279 280 280 279 279 280 280 280 280 280 280 279 280 280 280 280
298 297 298 299 295 308 297 283 286 293 291 289 291 293 295 294 293 290 289 287 289 289 287 286 283 281 280 280 280 280 280 280 280 280 280 281 281 281 280 279 279 279 279 279
296 298 298 299 299 298 297 290 291 293 298 290 291 293 293 291 292 294 286 282 284 284 283 282 281 280 281 281 281 280 280 280 279 279 279 279 279 279 279 279 279 279 279 279
295 295 298 294 300 304 300 292 287 288 297 291 287 290 292 290 300 305 291 292 289 287 284 281 281 280 280 281 280 279 280 280 280 279 279 279 279 279 278 278 278 278 278 278
295 296 297 297 299 299 295 290 287 298 301 291 288 290 290 293 295 293 290 289 289 287 284 283 281 279 281 282 280 279 280 280 281 280 279 279 279 279 279 278 278 278 278 277
295 295 295 294 297 300 294 290 299 296 293 291 291 290 289 289 288 288 288 289 288 288 286 285 282 281 281 281 279 280 281 284 282 282 279 279 279 279 278 278 278 278 278 278
297 296 299 296 298 295 292 294 291 288 289 289 288 288 288 287 286 286 287 287 287 286 286 285 283 282 282 281 280 279 282 283 283 282 280 279 279 278 278 278 278 277 277 277
293 294 298 297 295 296 292 291 288 286 285 285 285 285 286 285 284 285 285 285 284 283 283 283 282 282 281 282 282 282 281 282 282 282 281 279 278 278 278 278 277 277 278 278
295 295 295 296 294 293 291 289 286 285 284 283 283 282 282 282 283 284 282 281 281 281 280 280 279 280 280 281 280 281 281 281 281 281 281 280 278 278 278 278 278 278 278 278
293 294 296 296 292 291 291 287 284 283 283 282 281 281 281 281 281 280 280 279 278 278 278 277 278 278 279 279 279 280 281 280 279 279 279 279 278 278 277 277 277 278 278 278
Wind_Speed
1 4 6 4 6 5 6 9 14 14 7 6 17 19 19 22 17 18 16 13 11 8 3 3 8 8 8 6 4 2 4 6 8 10 13 13 15 15 15 13 15 14 12 13
3 6 2 2 3 6 8 10 13 10 2 4 12 21 24 22 15 9 5 2 3 4 3 5 7 6 5 3 2 3 5 7 9 10 11 11 14 14 16 14 12 13 14 13
4 2 3 3 4 5 7 8 9 8 8 5 10 11 5 1 0 2 2 3 5 3 4 5 6 4 3 3 3 4 7 9 10 10 10 11 13 13 14 13 15 13 14 15
4 1 1 2 3 3 4 3 5 6 4 5 4 8 9 4 2 2 2 3 4 5 4 4 6 5 4 3 3 5 7 9 9 8 9 10 12 14 14 17 16 17 15 14
1 1 1 1 2 1 2 2 3 2 4 5 4 5 4 0 6 7 6 6 4 3 2 3 3 3 3 2 5 6 7 9 8 9 9 10 12 14 16 15 17 16 16 15
3 1 1 1 1 1 1 4 5 1 2 4 1 4 3 3 2 5 4 4 4 3 1 3 3 3 4 4 5 6 8 8 8 9 9 11 13 15 16 16 17 15 14 15
2 1 2 2 3 1 1 4 3 3 3 2 1 4 6 2 1 1 3 5 4 4 4 4 5 5 4 5 5 6 7 9 8 8 9 10 12 14 15 15 16 16 16 15
1 3 2 2 1 1 0 2 3 5 3 3 3 5 2 1 2 3 5 7 6 5 5 4 3 3 4 4 5 7 7 9 9 10 10 10 10 11 12 14 15 16 16 17
3 3 2 2 1 1 3 3 2 3 1 3 3 4 1 2 2 1 3 6 10 8 6 4 2 3 4 5 6 7 8 9 9 10 10 11 10 10 12 13 13 14 14 15
3 3 1 2 1 2 2 3 2 2 3 3 3 4 3 3 1 2 6 12 10 9 7 4 3 3 4 4 6 7 7 9 11 10 10 11 11 10 10 10 12 13 15 14
4 1 2 1 5 4 3 3 3 2 1 3 4 1 2 3 1 6 12 11 10 8 6 4 4 4 4 5 6 6 7 9 9 9 9 10 10 9 8 8 10 11 12 12
2 2 4 1 1 2 2 3 5 4 4 1 2 5 2 1 3 7 12 10 9 7 6 5 5 5 5 4 5 5 6 8 8 9 9 9 9 9 9 8 9 10 12 12
5 3 3 3 2 1 4 4 2 3 1 6 3 3 2 2 8 5 9 10 8 7 6 4 5 5 5 4 5 5 6 8 8 8 8 8 8 8 9 10 10 9 9 10
3 3 5 5 1 3 4 5 7 6 3 3 7 9 8 13 19 16 16 14 12 9 6 4 4 5 5 5 4 4 5 6 7 8 8 8 8 9 8 9 11 11 9 8
3 4 2 8 12 9 11 11 11 12 9 8 1 6 13 17 13 11 12 12 12 9 6 3 4 3 5 5 4 4 5 5 5 6 7 7 8 9 9 8 9 10 10 9
3 2 0 4 4 5 5 10 13 15 12 9 10 17 2 6 8 8 11 10 12 11 8 5 4 6 7 8 6 6 4 4 3 3 4 6 7 7 7 7 9 9 9 9
6 2 0 3 2 6 4 3 4 2 2 4 6 2 8 12 12 11 9 9 10 10 9 7 6 7 9 11 8 8 6 4 2 1 2 2 4 5 6 7 7 8 9 9
5 3 2 3 4 3 2 1 1 3 3 8 6 7 9 12 14 12 8 5 12 10 9 7 6 8 11 11 11 9 7 6 5 4 3 1 0 1 3 5 5 6 6 7
4 3 2 2 3 5 3 3 5 5 5 5 5 8 11 11 10 4 4 4 6 9 11 13 13 12 12 14 13 12 11 10 10 10 8 7 5 4 3 3 3 3 3 4
6 2 3 2 3 4 3 1 3 2 4 5 4 7 9 11 7 2 2 13 13 14 15 16 15 13 14 16 15 12 13 13 14 14 12 10 9 8 7 5 5 4 3 3
4 3 8 5 3 4 1 3 4 3 1 1 3 6 6 6 6 15 18 15 17 16 20 17 13 17 19 16 17 17 16 21 19 14 13 13 11 10 9 8 7 7 7 6
7 8 4 3 4 5 5 5 2 3 3 6 6 10 13 11 13 12 14 13 13 15 17 17 12 15 16 17 17 19 22 24 19 18 17 17 15 13 12 11 10 10 10 10
4 3 2 6 2 2 3 2 3 5 7 8 12 12 13 14 15 15 15 15 15 19 19 17 15 17 17 19 22 22 31 24 22 21 22 21 19 17 16 15 13 11 10 10
4 4 2 1 2 2 1 5 4 3 7 10 10 12 11 14 15 16 14 14 14 18 18 19 19 17 19 20 24 33 28 26 22 25 25 23 22 21 20 19 16 13 11 10
1 5 4 4 2 4 7 7 9 8 8 10 11 11 11 12 13 13 15 14 18 20 20 19 19 18 20 22 22 25 27 30 30 29 28 26 23 22 19 21 19 19 20 17
5 5 5 2 4 1 1 7 8 10 11 11 12 13 12 12 13 15 14 19 20 21 23 21 20 19 21 22 24 23 22 25 28 23 23 24 21 19 19 18 18 22 24 21
Wind_Direction
50 242 236 283 251 299 293 276 276 277 275 288 273 282 282 279 273 268 274 262 260 263 344 210 165 161 162 168 180 250 297 309 321 317 320 319 314 307 304 298 297 295 292 294
210 244 51 292 242 243 249 272 278 283 202 255 289 287 279 277 283 277 296 151 123 121 104 129 148 159 175 187 232 284 300 312 316 314 310 298 297 292 295 297 294 294 297 293
241 86 316 257 258 252 255 252 281 286 314 256 300 271 277 153 223 151 149 98 90 98 149 152 164 179 198 235 264 293 307 314 315 310 302 297 296 296 297 296 297 291 294 291
255 51 271 259 265 235 273 0 290 285 310 292 345 295 279 302 323 145 127 131 93 94 105 148 184 203 230 243 273 299 302 303 302 299 297 298 298 296 294 294 291 293 289 287
80 196 64 296 335 244 305 315 279 266 271 311 194 245 267 16 96 90 77 73 67 70 111 170 195 234 245 272 294 297 304 306 303 306 306 302 293 288 291 291 293 296 296 293
277 35 352 12 27 307 297 278 237 139 241 249 11 263 301 33 79 106 79 71 45 27 252 227 233 238 258 275 288 297 300 303 313 313 302 293 291 294 295 298 301 303 301 299
333 102 93 349 232 140 294 284 288 245 200 285 148 242 295 333 202 267 341 338 326 315 316 290 268 265 267 283 292 306 312 316 308 302 297 291 288 292 293 297 298 300 299 297
277 207 176 28 28 12 90 300 284 286 289 325 159 239 168 135 236 264 274 273 297 325 325 322 309 286 281 291 314 315 308 297 301 303 300 295 289 288 290 293 294 295 297 296
198 239 127 65 75 296 132 205 27 281 92 269 256 257 260 48 70 45 297 326 342 343 334 332 288 268 292 312 312 298 296 299 308 308 306 300 296 295 290 294 294 294 296 297
174 284 94 110 158 77 277 135 201 197 270 265 254 262 195 176 149 314 330 333 337 340 340 323 304 286 295 301 290 292 303 308 314 309 304 301 302 299 300 300 302 299 293 294
157 246 134 163 200 172 162 210 212 303 234 280 309 17 213 131 55 332 319 333 333 324 318 304 283 273 284 285 291 308 311 311 317 318 310 307 310 310 307 301 304 302 302 301
155 163 257 242 12 298 260 244 203 239 172 194 331 275 58 96 273 291 314 319 319 313 303 283 276 277 279 284 298 302 311 313 321 323 320 317 319 322 320 316 320 315 320 322
175 203 288 186 186 188 229 194 201 91 98 212 218 248 147 205 312 328 289 309 311 320 309 274 262 257 260 268 286 306 316 320 324 328 331 329 334 331 334 331 332 336 336 335
201 220 239 256 23 102 209 201 207 207 207 182 238 293 294 340 334 328 330 325 311 301 291 281 264 242 236 251 268 293 303 316 326 330 337 340 343 342 338 339 343 345 352 355
199 248 216 265 267 258 255 252 205 211 219 233 278 263 310 307 314 310 308 312 320 319 312 292 250 231 233 239 246 261 286 305 315 333 343 347 355 353 353 357 3 3 4 6
194 260 177 275 309 220 250 247 243 224 232 252 292 294 340 302 287 305 324 331 336 335 322 297 249 237 231 231 235 248 266 280 300 336 358 360 358 7 11 15 25 30 23 23
181 236 312 266 312 293 254 239 189 189 259 213 231 274 323 319 321 318 313 325 324 325 317 299 270 237 227 218 221 232 236 249 264 313 358 24 13 9 19 22 36 38 29 27
167 190 211 282 305 225 36 147 247 245 246 220 286 280 297 290 294 284 269 271 321 328 318 305 274 252 237 223 216 221 223 234 239 238 242 253 136 351 347 353 7 12 13 13
179 179 216 273 280 320 171 201 172 201 220 194 231 281 297 298 301 254 188 226 288 299 293 282 272 261 244 230 221 221 226 235 242 241 236 231 232 250 261 277 312 328 339 345
190 162 227 155 258 227 89 79 189 192 255 164 211 282 312 328 344 279 324 328 314 305 295 294 282 258 241 235 225 227 235 236 239 238 239 238 239 242 249 256 272 274 283 290
157 185 213 207 264 281 245 142 156 189 36 211 223 281 297 297 278 301 308 307 306 300 309 317 290 257 254 242 228 233 238 239 239 236 238 239 241 245 247 254 267 283 288 286
178 165 186 159 217 261 149 137 265 349 310 316 310 309 295 286 293 294 302 303 310 314 319 320 299 275 265 245 229 235 238 243 241 240 242 241 242 243 247 252 265 276 280 285
218 218 180 209 209 86 185 356 71 354 310 329 315 311 307 308 310 315 315 317 318 318 318 320 310 300 284 260 239 237 246 246 241 237 241 243 243 244 246 249 255 261 264 266
221 189 229 222 165 223 250 119 56 340 337 325 321 311 313 310 315 315 320 320 318 318 316 317 315 306 296 286 272 257 254 255 248 243 245 246 244 245 245 247 249 247 245 246
101 156 185 262 234 93 148 66 17 356 341 338 336 326 317 316 315 320 318 318 317 316 316 317 311 307 304 301 283 281 271 257 251 247 248 248 246 247 247 248 246 248 252 249
186 180 189 199 142 293 315 6 25 354 348 339 333 330 336 332 324 324 315 315 314 316 317 315 311 306 306 306 298 294 285 266 252 241 240 241 241 244 246 248 259 260 260 261